This is the latest recevied weather packets stored in our database for station/object KD0JCP-10. If no packets are shown the sender has not sent any weather packets the latest 1 day(s).
| Time | Temp. | Humidity | Pressure | Rain* | Wind** | Luminosity | Snow |
|---|---|---|---|---|---|---|---|
| 1777994173 | 10.56° C | 44% | 1014.4 hPa | 0 mm | 1.79 m/s, 55° | - | - |
| 1777993873 | 10° C | 45% | 1014.3 hPa | 0 mm | 1.79 m/s, 76° | - | - |
| 1777993573 | 10° C | 45% | 1014.3 hPa | 0 mm | 1.79 m/s, 74° | - | - |
| 1777993273 | 10° C | 44% | 1014.1 hPa | 0 mm | 2.24 m/s, 94° | - | - |
| 1777992973 | 10° C | 44% | 1014.1 hPa | 0 mm | 1.79 m/s, 35° | - | - |
| 1777992673 | 10° C | 48% | 1014 hPa | 0 mm | 1.79 m/s, 45° | - | - |
| 1777992373 | 10° C | 48% | 1014 hPa | 0 mm | 1.79 m/s, 37° | - | - |
| 1777992073 | 10° C | 49% | 1014.1 hPa | 0 mm | 1.34 m/s, 76° | - | - |
| 1777991773 | 9.44° C | 52% | 1014.1 hPa | 0 mm | 1.34 m/s, 55° | - | - |
| 1777991473 | 9.44° C | 53% | 1014.1 hPa | 0 mm | 1.34 m/s, 109° | - | - |
| 1777991173 | 9.44° C | 52% | 1014 hPa | 0 mm | 1.79 m/s, 59° | - | - |
| 1777990873 | 9.44° C | 53% | 1014 hPa | 0 mm | 1.34 m/s, 95° | - | - |
| 1777990573 | 9.44° C | 55% | 1013.8 hPa | 0 mm | 1.34 m/s, 79° | - | - |
| 1777990273 | 9.44° C | 55% | 1013.7 hPa | 0 mm | 1.34 m/s, 40° | - | - |
| 1777989973 | 8.89° C | 57% | 1013.6 hPa | 0 mm | 1.34 m/s, 88° | - | - |
| 1777989673 | 8.89° C | 57% | 1013.5 hPa | 0 mm | 1.34 m/s, 55° | - | - |
| 1777989373 | 8.89° C | 59% | 1013.5 hPa | 0 mm | 1.34 m/s, 74° | - | - |
| 1777989073 | 8.89° C | 60% | 1013.3 hPa | 0 mm | 1.34 m/s, 71° | - | - |
| 1777988773 | 8.89° C | 62% | 1013.3 hPa | 0 mm | 1.34 m/s, 82° | - | - |
| 1777988473 | 8.89° C | 62% | 1013.1 hPa | 0 mm | 1.34 m/s, 47° | - | - |
| 1777988173 | 8.89° C | 62% | 1013.2 hPa | 0 mm | 1.79 m/s, 58° | - | - |
| 1777987873 | 8.89° C | 62% | 1013 hPa | 0 mm | 2.24 m/s, 61° | - | - |
| 1777987573 | 8.33° C | 63% | 1012.9 hPa | 0 mm | 2.68 m/s, 88° | - | - |
| 1777987273 | 8.33° C | 64% | 1013 hPa | 0 mm | 2.24 m/s, 65° | - | - |
| 1777986973 | 8.33° C | 65% | 1013 hPa | 0 mm | 2.68 m/s, 57° | - | - |
* Rain latest hour (hover to see other rain measurements)
** Current wind speed in m/s (hover to see current wind gust speed)